Strona główna
METAR-TAF:

METAR-TAF

Lotnisko :

Hallock Municipal Airport

Hallock, Minnesota, Stany Zjednoczone

Szerokość geograficzna: 48-45-10N, Długość geograficzna: 096-56-35W, wysokość: 250 m

Aktualna obserwacja pogody

Raport powstał 10 minut temu, godzina 22:56 UTC
Wiatr 12 kt od zachodnio-północny zachód
Temperatura 2°C
Wilgotność 64%
Ciśnienie 1013 hPa
Widzialność: 16.1 km
bezchmurnie

METAR: KHCO 232256Z AUTO 30012KT 10SM CLR 02/M04 A2990 RMK AO2

czas: 17:06 (23:06 UTC)


TAF: brakujący

Obserwacja i prognoza pogody dla ponad 4000 lotnisk (raport METAR i TAF).

Dostępne stacje oznaczono żółtymi i czerwonymi punktami na mapie.

Najedź kursorem aby zobaczyć nazwę stacji.

Kliknij aby zobaczyć obserwacje i prognozy pogody.

Aby zmienić mapę: kliknij na zielony przycisk z czarnym krzyżykiem, aby powiększyć; na zielony przycisk z myślnikiem, aby pomniejszyć; na zielone strzałki, aby przejść do map sąsiednich.


METAR-TAF: